• In Romania
  • List of Countries
  • For 7 days
  • Water Temperature
  • Satellite Maps
  • Weather Map
  • Weather Widgets
  • user-avatar
    Login

    Hourly Weather Valencia

    Today, 16 August, Thursday

    Time Temperature Precipitation Wind Pressure Humidity
    00:00 +23°C° 0 mm 1 mps 719 mmHg 89%
    01:00 +23°C° 0 mm 1 mps 719 mmHg 89%
    02:00 +23°C° 0.1 mm 1 mps 719 mmHg 90%
    03:00 +23°C° 0.1 mm 1 mps 719 mmHg 90%
    04:00 +22°C° 0.1 mm 1 mps 719 mmHg 90%
    05:00 +24°C° 0 mm 1 mps 719 mmHg 87%
    06:00 +23°C° 0 mm 0 mps 720 mmHg 83%
    07:00 +24°C° 0 mm 0 mps 720 mmHg 79%
    08:00 +28°C° 0 mm 1 mps 721 mmHg 70%
    09:00 +30°C° 0 mm 1 mps 721 mmHg 61%
    10:00 +32°C° 0 mm 2 mps 721 mmHg 52%
    11:00 +32°C° 0 mm 2 mps 721 mmHg 52%
    12:00 +32°C° 0 mm 2 mps 720 mmHg 51%
    13:00 +34°C° 0 mm 3 mps 720 mmHg 51%
    14:00 +33°C° 0.1 mm 3 mps 719 mmHg 57%
    15:00 +31°C° 0.1 mm 3 mps 719 mmHg 62%
    16:00 +30°C° 0.1 mm 2 mps 718 mmHg 68%
    17:00 +28°C° 0.1 mm 2 mps 718 mmHg 76%
    18:00 +27°C° 0.1 mm 2 mps 718 mmHg 84%
    19:00 +25°C° 0.1 mm 1 mps 719 mmHg 92%
    20:00 +25°C° 0 mm 1 mps 719 mmHg 93%
    21:00 +24°C° 0 mm 1 mps 720 mmHg 94%
    22:00 +24°C° 0 mm 1 mps 720 mmHg 95%
    23:00 +24°C° 0 mm 1 mps 720 mmHg 95%

    Tomorrow, 17 August, Friday

    Time Temperature Precipitation Wind Pressure Humidity
    00:00 +24°C° 0 mm 1 mps 720 mmHg 95%
    01:00 +23°C° 0 mm 1 mps 720 mmHg 95%
    02:00 +23°C° 0 mm 1 mps 719 mmHg 94%
    03:00 +23°C° 0 mm 1 mps 719 mmHg 94%
    04:00 +23°C° 0 mm 1 mps 719 mmHg 94%
    05:00 +24°C° 0 mm 1 mps 720 mmHg 89%
    06:00 +25°C° 0 mm 1 mps 720 mmHg 84%
    07:00 +26°C° 0 mm 1 mps 720 mmHg 79%
    08:00 +28°C° 0 mm 1 mps 721 mmHg 72%
    09:00 +29°C° 0 mm 2 mps 721 mmHg 65%
    10:00 +31°C° 0 mm 2 mps 721 mmHg 57%
    11:00 +31°C° 0 mm 3 mps 720 mmHg 55%
    12:00 +33°C° 0 mm 3 mps 720 mmHg 53%
    13:00 +34°C° 0 mm 3 mps 719 mmHg 51%
    14:00 +33°C° 0.1 mm 3 mps 718 mmHg 56%
    15:00 +31°C° 0.1 mm 3 mps 718 mmHg 61%
    16:00 +30°C° 0.1 mm 3 mps 717 mmHg 66%
    17:00 +29°C° 0 mm 2 mps 718 mmHg 74%
    18:00 +27°C° 0 mm 2 mps 718 mmHg 83%
    19:00 +25°C° 0 mm 1 mps 719 mmHg 92%
    20:00 +25°C° 0 mm 1 mps 719 mmHg 93%
    21:00 +24°C° 0 mm 1 mps 720 mmHg 94%
    22:00 +24°C° 0 mm 1 mps 720 mmHg 94%
    23:00 +24°C° 0 mm 1 mps 720 mmHg 94%

    Day after tomorrow, 18 August, Saturday

    Time Temperature Precipitation Wind Pressure Humidity
    00:00 +24°C° 0 mm 1 mps 719 mmHg 94%
    01:00 +24°C° 0 mm 1 mps 719 mmHg 94%
    02:00 +23°C° 0 mm 1 mps 719 mmHg 93%
    03:00 +23°C° 0 mm 1 mps 718 mmHg 93%
    04:00 +23°C° 0 mm 1 mps 718 mmHg 92%
    05:00 +24°C° 0 mm 1 mps 719 mmHg 90%
    06:00 +24°C° 0 mm 1 mps 719 mmHg 87%
    07:00 +25°C° 0 mm 1 mps 720 mmHg 85%
    08:00 +27°C° 0.1 mm 1 mps 720 mmHg 79%
    09:00 +28°C° 0.1 mm 2 mps 720 mmHg 74%
    10:00 +29°C° 0.1 mm 2 mps 720 mmHg 68%
    11:00 +29°C° 0.5 mm 2 mps 720 mmHg 71%
    12:00 +29°C° 0.5 mm 2 mps 719 mmHg 75%
    13:00 +29°C° 0.5 mm 2 mps 718 mmHg 78%
    14:00 +28°C° 1.1 mm 2 mps 718 mmHg 80%
    15:00 +28°C° 1.1 mm 2 mps 717 mmHg 82%
    16:00 +28°C° 1.1 mm 2 mps 717 mmHg 84%
    17:00 +26°C° 0.4 mm 2 mps 717 mmHg 87%
    18:00 +25°C° 0.4 mm 1 mps 718 mmHg 91%
    19:00 +24°C° 0.4 mm 1 mps 718 mmHg 94%
    20:00 +24°C° 0.1 mm 1 mps 718 mmHg 94%
    21:00 +24°C° 0.1 mm 1 mps 719 mmHg 93%
    22:00 +24°C° 0.1 mm 1 mps 719 mmHg 93%
    23:00 +23°C° 0.1 mm 1 mps 719 mmHg 93%

    19 August, Sunday

    Time Temperature Precipitation Wind Pressure Humidity
    00:00 +23°C° 0.1 mm 1 mps 718 mmHg 93%
    01:00 +23°C° 0.1 mm 1 mps 717 mmHg 93%
    02:00 +23°C° 0 mm 1 mps 717 mmHg 93%
    03:00 +22°C° 0 mm 1 mps 717 mmHg 92%
    04:00 +22°C° 0 mm 1 mps 717 mmHg 92%
    05:00 +23°C° 0 mm 1 mps 718 mmHg 90%
    06:00 +24°C° 0 mm 1 mps 719 mmHg 88%
    07:00 +25°C° 0 mm 1 mps 719 mmHg 85%
    08:00 +27°C° 0 mm 1 mps 719 mmHg 76%
    09:00 +29°C° 0 mm 1 mps 720 mmHg 67%
    10:00 +31°C° 0 mm 2 mps 720 mmHg 58%
    11:00 +31°C° 0.3 mm 2 mps 719 mmHg 60%
    12:00 +31°C° 0.3 mm 2 mps 719 mmHg 63%
    13:00 +31°C° 0.3 mm 3 mps 718 mmHg 65%
    14:00 +30°C° 0.5 mm 2 mps 718 mmHg 68%
    15:00 +29°C° 0.5 mm 2 mps 717 mmHg 72%
    16:00 +29°C° 0.5 mm 2 mps 717 mmHg 75%
    17:00 +27°C° 0 mm 2 mps 717 mmHg 80%
    18:00 +26°C° 0 mm 1 mps 718 mmHg 86%
    19:00 +24°C° 0 mm 1 mps 718 mmHg 91%
    20:00 +24°C° 0 mm 1 mps 719 mmHg 91%
    21:00 +23°C° 0 mm 1 mps 719 mmHg 91%
    22:00 +23°C° 0 mm 1 mps 719 mmHg 91%
    23:00 +23°C° 0 mm 1 mps 719 mmHg 91%

    20 August, Monday

    Time Temperature Precipitation Wind Pressure Humidity
    00:00 +23°C° 0 mm 1 mps 719 mmHg 91%
    01:00 +23°C° 0 mm 1 mps 718 mmHg 90%
    02:00 +23°C° 0 mm 1 mps 718 mmHg 90%
    03:00 +23°C° 0 mm 1 mps 718 mmHg 90%
    04:00 +22°C° 0 mm 1 mps 719 mmHg 90%
    05:00 +24°C° 0 mm 1 mps 719 mmHg 87%
    06:00 +25°C° 0 mm 2 mps 720 mmHg 83%
    07:00 +26°C° 0 mm 2 mps 720 mmHg 80%
    08:00 +27°C° 0.1 mm 2 mps 720 mmHg 75%
    09:00 +29°C° 0.1 mm 2 mps 720 mmHg 69%
    10:00 +30°C° 0.1 mm 2 mps 721 mmHg 63%
    11:00 +31°C° 0.5 mm 2 mps 720 mmHg 65%
    12:00 +31°C° 0.5 mm 3 mps 719 mmHg 67%
    13:00 +31°C° 0.5 mm 3 mps 718 mmHg 68%
    14:00 +31°C° 0.4 mm 3 mps 718 mmHg 67%
    15:00 +31°C° 0.4 mm 3 mps 718 mmHg 66%
    16:00 +31°C° 0.4 mm 2 mps 718 mmHg 65%
    17:00 +29°C° 0.1 mm 2 mps 718 mmHg 73%
    18:00 +27°C° 0.1 mm 2 mps 718 mmHg 82%
    19:00 +25°C° 0.1 mm 1 mps 719 mmHg 91%
    20:00 +24°C° 0 mm 1 mps 719 mmHg 91%
    21:00 +24°C° 0 mm 1 mps 720 mmHg 92%
    22:00 +24°C° 0 mm 1 mps 720 mmHg 93%
    23:00 +24°C° 0.1 mm 1 mps 719 mmHg 92%

    21 August, Tuesday

    Time Temperature Precipitation Wind Pressure Humidity
    00:00 +23°C° 0.1 mm 1 mps 719 mmHg 91%
    01:00 +23°C° 0.1 mm 1 mps 719 mmHg 91%
    02:00 +23°C° 0 mm 1 mps 719 mmHg 90%
    03:00 +23°C° 0 mm 1 mps 719 mmHg 89%
    04:00 +23°C° 0 mm 1 mps 719 mmHg 88%
    05:00 +24°C° 0 mm 1 mps 719 mmHg 84%
    06:00 +25°C° 0 mm 1 mps 720 mmHg 80%
    07:00 +26°C° 0 mm 1 mps 720 mmHg 76%
    08:00 +28°C° 0 mm 1 mps 720 mmHg 70%
    09:00 +29°C° 0 mm 2 mps 720 mmHg 65%
    10:00 +31°C° 0 mm 2 mps 720 mmHg 59%
    11:00 +32°C° 0 mm 2 mps 720 mmHg 57%
    12:00 +33°C° 0 mm 3 mps 719 mmHg 55%
    13:00 +34°C° 0 mm 3 mps 718 mmHg 54%
    14:00 +33°C° 0.3 mm 3 mps 718 mmHg 58%
    15:00 +31°C° 0.3 mm 3 mps 717 mmHg 62%
    16:00 +31°C° 0.3 mm 3 mps 717 mmHg 66%
    17:00 +29°C° 0.2 mm 2 mps 717 mmHg 74%
    18:00 +27°C° 0.2 mm 2 mps 718 mmHg 82%
    19:00 +25°C° 0.2 mm 1 mps 718 mmHg 90%
    20:00 +25°C° 0.1 mm 1 mps 719 mmHg 91%
    21:00 +25°C° 0.1 mm 1 mps 719 mmHg 92%
    22:00 +24°C° 0.1 mm 1 mps 719 mmHg 93%
    23:00 +24°C° 0 mm 1 mps 719 mmHg 93%
    Show more